When you browse on this site, cookies collect data to enhance your experience and personalize the content and advertising you see.
Visit our Privacy Policy to learn more. By continuing to use the site, you agree to this use of cookies and data.
  • în România
  • Lista ţărilor
  • Pe 7 zile
  • Temperatura apei
  • Hartă satelitară
  • Meteo pe hartă
  • Widget-uri
  • user-avatar
    Intrare

    Meteo pe oră la Dubovyy Gay

    Astăzi, 25 Martie, Luni

    Timp Temperatura Precipitaţii Vânt Presiune Umiditate
    00:00 -2°C° 0.4 mm 5 m/s 742 mmHg 95%
    01:00 -2°C° 1.6 mm 5 m/s 741 mmHg 96%
    02:00 -1°C° 1.6 mm 5 m/s 740 mmHg 97%
    03:00 0°C° 0 mm 4 m/s 738 mmHg 99%
    04:00 -1°C° 0.9 mm 5 m/s 737 mmHg 98%
    05:00 -1°C° 0.9 mm 5 m/s 736 mmHg 97%
    06:00 -1°C° 0.9 mm 5 m/s 735 mmHg 97%
    07:00 -2°C° 0.1 mm 6 m/s 735 mmHg 96%
    08:00 -3°C° 0.1 mm 6 m/s 735 mmHg 96%
    09:00 -3°C° 0 mm 7 m/s 734 mmHg 95%
    10:00 -4°C° 0.2 mm 8 m/s 735 mmHg 94%
    11:00 -2°C° 0.2 mm 8 m/s 735 mmHg 93%
    12:00 -2°C° 0.2 mm 8 m/s 736 mmHg 92%
    13:00 -2°C° 0.3 mm 8 m/s 736 mmHg 91%
    14:00 -2°C° 0.3 mm 8 m/s 737 mmHg 90%
    15:00 -2°C° 0 mm 7 m/s 738 mmHg 89%
    16:00 -2°C° 0.2 mm 7 m/s 738 mmHg 88%
    17:00 -2°C° 0.2 mm 7 m/s 739 mmHg 88%
    18:00 -2°C° 0.2 mm 7 m/s 740 mmHg 88%
    19:00 -2°C° 0.1 mm 7 m/s 740 mmHg 87%
    20:00 -3°C° 0.1 mm 6 m/s 741 mmHg 86%
    21:00 -3°C° 0.1 mm 6 m/s 742 mmHg 85%
    22:00 -3°C° 0 mm 6 m/s 743 mmHg 86%
    23:00 -4°C° 0 mm 6 m/s 743 mmHg 87%

    Mâine, 26 Martie, Marţi

    Timp Temperatura Precipitaţii Vânt Presiune Umiditate
    00:00 -4°C° 0 mm 6 m/s 744 mmHg 88%
    01:00 -5°C° 0 mm 5 m/s 745 mmHg 89%
    02:00 -5°C° 0 mm 5 m/s 746 mmHg 90%
    03:00 -5°C° 0 mm 4 m/s 746 mmHg 90%
    04:00 -5°C° 0 mm 4 m/s 747 mmHg 91%
    05:00 -7°C° 0 mm 4 m/s 747 mmHg 92%
    06:00 -6°C° 0 mm 3 m/s 748 mmHg 92%
    07:00 -5°C° 0 mm 3 m/s 748 mmHg 91%
    08:00 -4°C° 0 mm 4 m/s 749 mmHg 90%
    09:00 -3°C° 0 mm 4 m/s 749 mmHg 89%
    10:00 -3°C° 0 mm 4 m/s 750 mmHg 91%
    11:00 -2°C° 0 mm 4 m/s 750 mmHg 93%
    12:00 -2°C° 0 mm 4 m/s 750 mmHg 95%
    13:00 -2°C° 0 mm 4 m/s 750 mmHg 94%
    14:00 -1°C° 0 mm 4 m/s 750 mmHg 93%
    15:00 -1°C° 0 mm 4 m/s 750 mmHg 93%
    16:00 -2°C° 0 mm 4 m/s 750 mmHg 91%
    17:00 -2°C° 0 mm 4 m/s 749 mmHg 89%
    18:00 -2°C° 0 mm 5 m/s 749 mmHg 87%
    19:00 -3°C° 0.9 mm 6 m/s 749 mmHg 87%
    20:00 -2°C° 0.9 mm 7 m/s 748 mmHg 86%
    21:00 -1°C° 0.9 mm 8 m/s 748 mmHg 85%
    22:00 -1°C° 0.4 mm 7 m/s 748 mmHg 89%
    23:00 -1°C° 0.4 mm 7 m/s 748 mmHg 93%

    Poimâine, 27 Martie, Miercuri

    Timp Temperatura Precipitaţii Vânt Presiune Umiditate
    00:00 -1°C° 0.4 mm 7 m/s 748 mmHg 97%
    01:00 -1°C° 0 mm 6 m/s 748 mmHg 97%
    02:00 -1°C° 0 mm 5 m/s 749 mmHg 97%
    03:00 -1°C° 0 mm 4 m/s 749 mmHg 97%
    04:00 -1°C° 0.1 mm 4 m/s 749 mmHg 98%
    05:00 -1°C° 0.1 mm 4 m/s 750 mmHg 98%
    06:00 0°C° 0.1 mm 3 m/s 750 mmHg 99%
    07:00 0°C° 0.3 mm 3 m/s 750 mmHg 99%
    08:00 0°C° 0.3 mm 3 m/s 750 mmHg 99%
    09:00 0°C° 0.3 mm 3 m/s 750 mmHg 99%
    10:00 0°C° 0.2 mm 3 m/s 750 mmHg 98%
    11:00 -1°C° 0.2 mm 4 m/s 750 mmHg 97%
    12:00 -1°C° 0.2 mm 5 m/s 750 mmHg 96%
    13:00 0°C° 0 mm 5 m/s 750 mmHg 94%
    14:00 0°C° 0 mm 5 m/s 750 mmHg 92%
    15:00 0°C° 0 mm 5 m/s 750 mmHg 91%
    16:00 0°C° 0 mm 5 m/s 750 mmHg 89%
    17:00 -1°C° 0 mm 5 m/s 749 mmHg 88%
    18:00 -1°C° 0 mm 4 m/s 749 mmHg 87%
    19:00 -1°C° 0 mm 4 m/s 749 mmHg 86%
    20:00 -1°C° 0 mm 4 m/s 749 mmHg 86%
    21:00 -1°C° 0 mm 5 m/s 749 mmHg 85%
    22:00 -2°C° 0 mm 4 m/s 749 mmHg 86%
    23:00 -2°C° 0 mm 4 m/s 749 mmHg 86%

    28 Martie, Joi

    Timp Temperatura Precipitaţii Vânt Presiune Umiditate
    00:00 -1°C° 0 mm 3 m/s 749 mmHg 86%
    01:00 -1°C° 0 mm 2 m/s 749 mmHg 87%
    02:00 -2°C° 0 mm 2 m/s 748 mmHg 88%
    03:00 0°C° 0 mm 1 m/s 748 mmHg 88%
    04:00 0°C° 0.2 mm 1 m/s 748 mmHg 89%
    05:00 0°C° 0.2 mm 1 m/s 748 mmHg 90%
    06:00 0°C° 0.2 mm 1 m/s 748 mmHg 91%
    07:00 0°C° 0.5 mm 1 m/s 748 mmHg 93%
    08:00 +1°C° 0.5 mm 1 m/s 748 mmHg 95%
    09:00 +1°C° 0.5 mm 1 m/s 748 mmHg 97%
    10:00 -1°C° 0.6 mm 2 m/s 748 mmHg 98%
    11:00 -1°C° 0.6 mm 2 m/s 748 mmHg 98%
    12:00 -1°C° 0.6 mm 3 m/s 748 mmHg 98%
    13:00 -1°C° 0.3 mm 3 m/s 748 mmHg 97%
    14:00 -1°C° 0.3 mm 3 m/s 748 mmHg 96%
    15:00 -1°C° 0.3 mm 4 m/s 748 mmHg 95%
    16:00 -1°C° 0 mm 3 m/s 748 mmHg 92%
    17:00 -1°C° 0 mm 3 m/s 748 mmHg 90%
    18:00 -2°C° 0 mm 3 m/s 748 mmHg 87%
    19:00 -4°C° 0 mm 3 m/s 748 mmHg 88%
    20:00 -5°C° 0 mm 3 m/s 748 mmHg 89%
    21:00 -5°C° 0 mm 3 m/s 749 mmHg 90%
    22:00 -6°C° 0 mm 3 m/s 748 mmHg 90%
    23:00 -6°C° 0 mm 3 m/s 748 mmHg 90%

    29 Martie, Vineri

    Timp Temperatura Precipitaţii Vânt Presiune Umiditate
    00:00 -6°C° 0 mm 3 m/s 748 mmHg 90%
    01:00 -6°C° 0 mm 3 m/s 748 mmHg 90%
    02:00 -6°C° 0 mm 3 m/s 748 mmHg 90%
    03:00 -7°C° 0 mm 3 m/s 748 mmHg 90%
    04:00 -6°C° 0 mm 3 m/s 748 mmHg 91%
    05:00 -6°C° 0 mm 3 m/s 748 mmHg 92%
    06:00 -5°C° 0 mm 4 m/s 747 mmHg 94%
    07:00 -4°C° 0 mm 4 m/s 747 mmHg 92%
    08:00 -4°C° 0 mm 4 m/s 747 mmHg 91%
    09:00 -3°C° 0 mm 4 m/s 747 mmHg 89%
    10:00 -3°C° 0 mm 4 m/s 747 mmHg 89%
    11:00 -2°C° 0 mm 4 m/s 747 mmHg 89%
    12:00 -2°C° 0 mm 4 m/s 747 mmHg 90%
    13:00 -2°C° 0.1 mm 5 m/s 747 mmHg 86%
    14:00 -2°C° 0.1 mm 5 m/s 746 mmHg 83%
    15:00 -2°C° 0.1 mm 5 m/s 746 mmHg 80%
    16:00 -4°C° 0 mm 5 m/s 746 mmHg 81%
    17:00 -4°C° 0 mm 5 m/s 746 mmHg 81%
    18:00 -4°C° 0 mm 5 m/s 745 mmHg 82%
    19:00 -5°C° 0 mm 5 m/s 745 mmHg 83%
    20:00 -5°C° 0 mm 5 m/s 745 mmHg 84%
    21:00 -4°C° 0 mm 4 m/s 745 mmHg 86%
    22:00 -4°C° 0 mm 4 m/s 745 mmHg 86%
    23:00 -4°C° 0 mm 4 m/s 745 mmHg 87%

    30 Martie, Sâmbătă

    Timp Temperatura Precipitaţii Vânt Presiune Umiditate
    00:00 -4°C° 0 mm 4 m/s 745 mmHg 87%
    01:00 -4°C° 0 mm 4 m/s 745 mmHg 88%
    02:00 -4°C° 0 mm 4 m/s 745 mmHg 88%
    03:00 -4°C° 0 mm 3 m/s 745 mmHg 89%
    04:00 -4°C° 0 mm 3 m/s 745 mmHg 89%
    05:00 -4°C° 0 mm 3 m/s 745 mmHg 89%
    06:00 -5°C° 0 mm 3 m/s 746 mmHg 90%
    07:00 -4°C° 0 mm 3 m/s 746 mmHg 89%
    08:00 -2°C° 0 mm 3 m/s 747 mmHg 89%
    09:00 -1°C° 0 mm 3 m/s 747 mmHg 88%
    10:00 -1°C° 0 mm 3 m/s 747 mmHg 90%
    11:00 0°C° 0 mm 3 m/s 748 mmHg 92%
    12:00 0°C° 0 mm 3 m/s 748 mmHg 93%
    13:00 0°C° 0 mm 3 m/s 748 mmHg 93%
    14:00 0°C° 0 mm 3 m/s 748 mmHg 92%
    15:00 0°C° 0 mm 3 m/s 748 mmHg 91%
    16:00 0°C° 0 mm 3 m/s 749 mmHg 91%
    17:00 -1°C° 0 mm 2 m/s 749 mmHg 90%
    18:00 -2°C° 0 mm 2 m/s 749 mmHg 90%
    19:00 -2°C° 0 mm 2 m/s 749 mmHg 91%
    20:00 -2°C° 0 mm 2 m/s 749 mmHg 91%
    21:00 -3°C° 0 mm 2 m/s 749 mmHg 92%
    22:00 -4°C° 0 mm 3 m/s 749 mmHg 93%
    23:00 -4°C° 0 mm 3 m/s 749 mmHg 93%
    Arată mai mult